DLH4NH EDDF-EFHK

Flight info

Callsign DLH4NH
Flight time N/A
Altitude 35000
Route MARUN6E MARUN Y150 TOLGI DCT OKAGA DCT ALAMI DCT OKEVU DCT EVADI Y370 DIVAM
Aircraft A321/M-SDE3FGHIRWY/LB1

Departure

Time N/A
Airport Frankfurt Main Airport (EDDF)

Arrival

Time 2026-04-26 09:52
Airport Helsinki Vantaa Airport (EFHK)
Time Latitude Longitude Altitude Speed Heading
2026-04-26 08:45 56.16343 15.68980 35230 ft 416 kts 30°
2026-04-26 08:45 56.18492 15.72451 35214 ft 416 kts 30°
2026-04-26 08:45 56.22791 15.79411 35215 ft 416 kts 30°
2026-04-26 08:46 56.27089 15.86392 35205 ft 416 kts 30°
2026-04-26 08:46 56.31381 15.93400 35204 ft 417 kts 30°
2026-04-26 08:47 56.35673 16.00431 35225 ft 417 kts 30°
2026-04-26 08:47 56.39952 16.07457 35184 ft 415 kts 30°
2026-04-26 08:48 56.43505 16.13293 35177 ft 416 kts 30°
2026-04-26 08:48 56.47794 16.20352 35175 ft 417 kts 30°
2026-04-26 08:49 56.52075 16.27445 35177 ft 417 kts 31°
2026-04-26 08:49 56.56356 16.34567 35179 ft 418 kts 31°
2026-04-26 08:50 56.60634 16.41704 35165 ft 417 kts 31°
2026-04-26 08:50 56.64905 16.48837 35202 ft 418 kts 31°
2026-04-26 08:51 56.71298 16.59553 35180 ft 417 kts 31°
2026-04-26 08:52 56.75562 16.66739 35176 ft 418 kts 31°
2026-04-26 08:52 56.79826 16.73959 35177 ft 418 kts 31°
2026-04-26 08:53 56.84092 16.81196 35182 ft 419 kts 32°
2026-04-26 08:53 56.88393 16.88511 35165 ft 419 kts 32°
2026-04-26 08:54 56.92661 16.95791 35163 ft 420 kts 32°
2026-04-26 08:54 56.96935 17.03099 35165 ft 420 kts 32°
2026-04-26 08:55 57.01204 17.10443 35164 ft 421 kts 32°
2026-04-26 08:55 57.05442 17.17754 35163 ft 419 kts 32°
2026-04-26 08:56 57.09691 17.25107 35153 ft 419 kts 32°
2026-04-26 08:56 57.13934 17.32474 35153 ft 420 kts 32°
2026-04-26 08:57 57.18186 17.39869 35149 ft 420 kts 33°
2026-04-26 08:57 57.22433 17.47297 35151 ft 421 kts 33°
2026-04-26 08:58 57.26678 17.54727 35144 ft 420 kts 33°
2026-04-26 08:58 57.30891 17.62145 35129 ft 418 kts 33°
2026-04-26 08:59 57.35107 17.69573 35121 ft 419 kts 33°
2026-04-26 08:59 57.39317 17.77041 35126 ft 419 kts 33°
2026-04-26 09:00 57.43530 17.84533 35124 ft 420 kts 33°
2026-04-26 09:00 57.47746 17.92040 35129 ft 420 kts 33°
2026-04-26 09:01 57.51955 17.99565 35132 ft 420 kts 33°
2026-04-26 09:01 57.56160 18.07112 35121 ft 420 kts 33°
2026-04-26 09:02 57.60368 18.14681 35123 ft 420 kts 33°
2026-04-26 09:02 57.64541 18.22222 35123 ft 420 kts 33°
2026-04-26 09:03 57.68737 18.29826 35103 ft 420 kts 33°
2026-04-26 09:03 57.72912 18.37437 35103 ft 417 kts 34°
2026-04-26 09:04 57.77061 18.45024 35096 ft 417 kts 34°
2026-04-26 09:04 57.81219 18.52624 35139 ft 418 kts 34°
2026-04-26 09:05 57.85376 18.60260 35101 ft 418 kts 34°
2026-04-26 09:05 57.89537 18.67929 35092 ft 419 kts 35°
2026-04-26 09:06 57.93697 18.75630 35133 ft 420 kts 35°
2026-04-26 09:06 57.97848 18.83346 35073 ft 419 kts 36°
2026-04-26 09:07 58.01997 18.91070 35074 ft 420 kts 36°
2026-04-26 09:07 58.06156 18.98833 35067 ft 420 kts 36°
2026-04-26 09:08 58.10315 19.06625 35068 ft 421 kts 36°
2026-04-26 09:08 58.14466 19.14447 35072 ft 421 kts 36°
2026-04-26 09:09 58.18612 19.22283 35055 ft 420 kts 36°
2026-04-26 09:09 58.22739 19.30122 35055 ft 420 kts 36°
2026-04-26 09:10 58.26851 19.37950 35051 ft 421 kts 36°
2026-04-26 09:10 58.30989 19.45842 35050 ft 422 kts 36°
2026-04-26 09:11 58.35128 19.53768 35048 ft 422 kts 36°
2026-04-26 09:11 58.39266 19.61716 35074 ft 422 kts 37°
2026-04-26 09:12 58.43391 19.69667 35020 ft 419 kts 37°
2026-04-26 09:12 58.47489 19.77607 35017 ft 420 kts 37°
2026-04-26 09:13 58.51590 19.85581 35010 ft 421 kts 37°
2026-04-26 09:13 58.55672 19.93531 35010 ft 421 kts 37°
2026-04-26 09:14 58.59771 20.01556 35013 ft 421 kts 37°
2026-04-26 09:14 58.63865 20.09608 35030 ft 422 kts 38°
2026-04-26 09:15 58.67966 20.17688 35023 ft 422 kts 38°
2026-04-26 09:15 58.72067 20.25788 35018 ft 423 kts 38°
2026-04-26 09:16 58.76167 20.33923 35001 ft 423 kts 38°
2026-04-26 09:16 58.80259 20.42091 34997 ft 423 kts 38°
2026-04-26 09:17 58.84349 20.50271 35001 ft 424 kts 38°
2026-04-26 09:17 58.88449 20.58489 34985 ft 425 kts 38°
2026-04-26 09:18 58.92545 20.66746 34983 ft 426 kts 39°
2026-04-26 09:18 58.96646 20.75054 34976 ft 426 kts 39°
2026-04-26 09:19 59.00751 20.83374 34977 ft 427 kts 39°
2026-04-26 09:19 59.04788 20.91885 34965 ft 434 kts 46°
2026-04-26 09:20 59.08054 21.01910 34983 ft 440 kts 51°
2026-04-26 09:20 59.11248 21.12089 34966 ft 441 kts 51°
2026-04-26 09:21 59.14449 21.22284 34946 ft 441 kts 51°
2026-04-26 09:21 59.17637 21.32509 34946 ft 442 kts 52°
2026-04-26 09:22 59.20795 21.42713 34951 ft 442 kts 52°
2026-04-26 09:22 59.23976 21.53010 34938 ft 443 kts 52°
2026-04-26 09:23 59.27149 21.63316 34939 ft 443 kts 52°
2026-04-26 09:23 59.30319 21.73665 34923 ft 443 kts 52°
2026-04-26 09:24 59.33476 21.84047 34935 ft 444 kts 53°
2026-04-26 09:24 59.36632 21.94469 34917 ft 445 kts 53°
2026-04-26 09:25 59.39797 22.04929 34896 ft 446 kts 53°
2026-04-26 09:25 59.42967 22.15415 34743 ft 446 kts 53°
2026-04-26 09:25 59.44543 22.20659 34504 ft 445 kts 53°
2026-04-26 09:26 59.46114 22.25904 33792 ft 447 kts 53°
2026-04-26 09:26 59.47691 22.31191 32917 ft 448 kts 53°
2026-04-26 09:26 59.49259 22.36476 32140 ft 447 kts 53°
2026-04-26 09:26 59.50829 22.41771 31330 ft 447 kts 53°
2026-04-26 09:27 59.52402 22.47068 30447 ft 448 kts 53°
2026-04-26 09:27 59.53956 22.52310 29483 ft 450 kts 53°
2026-04-26 09:27 59.55527 22.57640 28538 ft 448 kts 53°
2026-04-26 09:27 59.57086 22.62952 27640 ft 446 kts 53°
2026-04-26 09:28 59.58617 22.68205 27105 ft 437 kts 53°
2026-04-26 09:28 59.60119 22.73370 26489 ft 431 kts 54°
2026-04-26 09:28 59.61607 22.78475 25826 ft 427 kts 54°
2026-04-26 09:28 59.63081 22.83523 25224 ft 421 kts 54°
2026-04-26 09:29 59.64535 22.88508 24640 ft 416 kts 54°
2026-04-26 09:29 59.65970 22.93437 24038 ft 411 kts 55°
2026-04-26 09:29 59.67387 22.98314 23447 ft 406 kts 55°
2026-04-26 09:29 59.68782 23.03136 22791 ft 401 kts 56°
2026-04-26 09:30 59.70151 23.07890 22229 ft 393 kts 56°
2026-04-26 09:30 59.71493 23.12553 21663 ft 387 kts 56°
2026-04-26 09:30 59.72814 23.17148 21102 ft 381 kts 56°
2026-04-26 09:30 59.74116 23.21677 20592 ft 375 kts 56°
2026-04-26 09:31 59.75400 23.26144 20074 ft 370 kts 56°
2026-04-26 09:31 59.76666 23.30564 19573 ft 367 kts 56°
2026-04-26 09:31 59.77922 23.34953 19092 ft 365 kts 56°
2026-04-26 09:31 59.79152 23.39259 18631 ft 362 kts 56°
2026-04-26 09:32 59.80387 23.43606 18175 ft 361 kts 57°
2026-04-26 09:32 59.81609 23.47929 17671 ft 357 kts 57°
2026-04-26 09:32 59.82427 23.50834 17344 ft 356 kts 57°
2026-04-26 09:32 59.83634 23.55114 16894 ft 353 kts 57°
2026-04-26 09:33 59.85184 23.60612 16634 ft 334 kts 56°
2026-04-26 09:33 59.85939 23.63299 16537 ft 324 kts 57°
2026-04-26 09:33 59.87356 23.68358 16280 ft 309 kts 56°
2026-04-26 09:33 59.88387 23.72038 16021 ft 301 kts 56°
2026-04-26 09:34 59.89078 23.74499 15838 ft 303 kts 58°
2026-04-26 09:34 59.90109 23.78166 15563 ft 303 kts 56°
2026-04-26 09:34 59.91135 23.81823 15301 ft 301 kts 57°
2026-04-26 09:34 59.92142 23.85475 15033 ft 300 kts 58°
2026-04-26 09:35 59.93119 23.89138 14758 ft 299 kts 58°
2026-04-26 09:35 59.94079 23.92795 14489 ft 296 kts 58°
2026-04-26 09:35 59.95029 23.96427 14229 ft 295 kts 58°
2026-04-26 09:35 59.95975 24.00048 13927 ft 293 kts 57°
2026-04-26 09:36 59.96916 24.03648 13527 ft 291 kts 57°
2026-04-26 09:36 59.97848 24.07213 13088 ft 289 kts 58°
2026-04-26 09:36 59.98775 24.10756 12683 ft 286 kts 57°
2026-04-26 09:36 59.99691 24.14261 12283 ft 283 kts 57°
2026-04-26 09:37 60.00599 24.17739 11900 ft 281 kts 57°
2026-04-26 09:37 60.01499 24.21199 11492 ft 279 kts 57°
2026-04-26 09:37 60.02392 24.24638 11099 ft 277 kts 56°
2026-04-26 09:37 60.03275 24.28041 10713 ft 274 kts 56°
2026-04-26 09:38 60.04142 24.31375 10319 ft 272 kts 56°
2026-04-26 09:38 60.05009 24.34714 9929 ft 270 kts 56°
2026-04-26 09:38 60.05870 24.38039 9544 ft 268 kts 55°
2026-04-26 09:38 60.06722 24.41337 9140 ft 266 kts 55°
2026-04-26 09:39 60.07566 24.44612 8767 ft 264 kts 55°
2026-04-26 09:39 60.08404 24.47867 8397 ft 262 kts 55°
2026-04-26 09:39 60.09239 24.51103 8025 ft 261 kts 55°
2026-04-26 09:39 60.10071 24.54333 7658 ft 260 kts 55°
2026-04-26 09:40 60.10897 24.57547 7285 ft 259 kts 55°
2026-04-26 09:40 60.11718 24.60750 6906 ft 258 kts 55°
2026-04-26 09:40 60.12539 24.63953 6438 ft 260 kts 55°
2026-04-26 09:40 60.13372 24.67200 6039 ft 260 kts 55°
2026-04-26 09:41 60.14185 24.70393 5900 ft 256 kts 55°
2026-04-26 09:41 60.14995 24.73583 5713 ft 257 kts 55°
2026-04-26 09:41 60.15801 24.76764 5405 ft 253 kts 54°
2026-04-26 09:41 60.16577 24.79855 5264 ft 242 kts 54°
2026-04-26 09:42 60.17319 24.82810 5123 ft 233 kts 54°
2026-04-26 09:42 60.18032 24.85707 4811 ft 232 kts 58°
2026-04-26 09:42 60.18306 24.88974 4507 ft 248 kts 85°
2026-04-26 09:42 60.17765 24.92300 4156 ft 265 kts 117°
2026-04-26 09:43 60.16360 24.94837 3773 ft 275 kts 149°
2026-04-26 09:43 60.14652 24.96568 3423 ft 275 kts 151°
2026-04-26 09:43 60.12944 24.98266 3091 ft 273 kts 152°
2026-04-26 09:43 60.11274 24.99923 2998 ft 263 kts 151°
2026-04-26 09:44 60.09630 25.01544 3008 ft 264 kts 152°
2026-04-26 09:44 60.08056 25.03304 3009 ft 260 kts 135°
2026-04-26 09:44 60.07018 25.06057 3013 ft 234 kts 101°
2026-04-26 09:44 60.06869 25.08963 3006 ft 192 kts 64°
2026-04-26 09:45 60.07421 25.11167 3005 ft 171 kts 44°
2026-04-26 09:45 60.08122 25.13049 3008 ft 167 kts 40°
2026-04-26 09:45 60.08989 25.14389 3012 ft 152 kts 13°
2026-04-26 09:45 60.10004 25.14612 3013 ft 146 kts 354°
2026-04-26 09:46 60.11021 25.14485 3013 ft 146 kts 354°
2026-04-26 09:46 60.12040 25.14367 3013 ft 147 kts 354°
2026-04-26 09:46 60.13058 25.14252 3026 ft 146 kts 354°
2026-04-26 09:46 60.14071 25.14138 3013 ft 145 kts 354°
2026-04-26 09:47 60.15077 25.14021 3008 ft 145 kts 354°
2026-04-26 09:47 60.16068 25.13703 3006 ft 145 kts 342°
2026-04-26 09:47 60.16981 25.12826 3005 ft 146 kts 336°
2026-04-26 09:47 60.17886 25.11903 3004 ft 146 kts 336°
2026-04-26 09:48 60.18792 25.10979 3002 ft 146 kts 336°
2026-04-26 09:48 60.19699 25.10059 3003 ft 146 kts 336°
2026-04-26 09:48 60.20606 25.09142 2999 ft 146 kts 336°
2026-04-26 09:48 60.21514 25.08223 2718 ft 145 kts 336°
2026-04-26 09:49 60.22411 25.07308 2458 ft 144 kts 336°
2026-04-26 09:49 60.23302 25.06399 2210 ft 144 kts 336°
2026-04-26 09:49 60.24193 25.05490 1955 ft 143 kts 336°
2026-04-26 09:49 60.25082 25.04581 1753 ft 144 kts 336°
2026-04-26 09:50 60.25945 25.03693 1491 ft 133 kts 336°
2026-04-26 09:50 60.26733 25.02876 1311 ft 124 kts 336°
2026-04-26 09:50 60.27499 25.02087 1055 ft 124 kts 335°
2026-04-26 09:50 60.28259 25.01306 830 ft 122 kts 335°
2026-04-26 09:51 60.29020 25.00527 631 ft 122 kts 333°
2026-04-26 09:51 60.29782 24.99750 450 ft 122 kts 333°
2026-04-26 09:51 60.30538 24.98992 267 ft 122 kts 333°
2026-04-26 09:51 60.31284 24.98251 164 ft 110 kts 330°
2026-04-26 09:52 60.31848 24.97659 152 ft 68 kts 333°
2026-04-26 09:52 60.32375 24.97112 162 ft 13 kts 323°
2026-04-26 09:52 60.32383 24.96976 164 ft 11 kts 245°
2026-04-26 09:53 60.32347 24.96887 165 ft 0 kts 226°
2026-04-26 09:54 60.32346 24.96884 165 ft 1 kts 227°
2026-04-26 09:54 60.32336 24.96862 165 ft 3 kts 230°
2026-04-26 09:55 60.32314 24.96810 166 ft 7 kts 230°
2026-04-26 09:55 60.32281 24.96730 166 ft 0 kts 226°
2026-04-26 09:56 60.32277 24.96725 166 ft 3 kts 216°
2026-04-26 09:56 60.32218 24.96766 166 ft 15 kts 151°
2026-04-26 09:56 60.32190 24.96785 166 ft 5 kts 181°
2026-04-26 09:56 60.32156 24.96698 167 ft 10 kts 246°
2026-04-26 09:57 60.32126 24.96601 167 ft 0 kts 230°
2026-04-26 09:57 60.32124 24.96597 167 ft 2 kts 230°
2026-04-26 09:57 60.32106 24.96555 167 ft 6 kts 229°
2026-04-26 09:57 60.32066 24.96468 167 ft 11 kts 227°
2026-04-26 09:58 60.32008 24.96341 167 ft 13 kts 227°
2026-04-26 09:58 60.31941 24.96193 167 ft 15 kts 227°
2026-04-26 09:58 60.31863 24.96158 167 ft 13 kts 128°
2026-04-26 09:58 60.31867 24.96344 167 ft 15 kts 60°
2026-04-26 09:59 60.31938 24.96503 167 ft 15 kts 47°
2026-04-26 09:59 60.31995 24.96628 167 ft 10 kts 46°
2026-04-26 09:59 60.32037 24.96691 167 ft 3 kts 51°
2026-04-26 09:59 60.32031 24.96720 167 ft 2 kts 131°
2026-04-26 10:00 60.32012 24.96730 167 ft 4 kts 168°
2026-04-26 10:00 60.31981 24.96737 167 ft 3 kts 174°
2026-04-26 10:00 60.31969 24.96739 167 ft 0 kts 174°